Location: Seattle
(47.6064°N, 122.3308°W)
Time: 14:54:34
(UTC-07:00)

DIWATA 2B (PO-101) - Visible Passes

Search period start: 22 March 2023 00:00
Search period end: 01 April 2023 00:00
Orbit: 581 x 596 km, 98.0° (Epoch: 22 March)

Date Brightness Start Highest point End Pass type
(mag) Time Alt. Az. Time Alt. Az. Time Alt. Az.
22 Mar ? 03:11:30 10° N 03:11:30 10° N 03:11:33 10° N visible
23 Mar ? 03:18:56 11° N 03:18:56 11° N 03:19:06 10° N visible
24 Mar ? 03:26:21 12° N 03:26:21 12° N 03:26:38 10° N visible
25 Mar ? 03:33:46 12° NNW 03:33:46 12° NNW 03:34:09 10° NNW visible
26 Mar ? 03:41:11 13° NNW 03:41:11 13° NNW 03:41:38 10° NNW visible
27 Mar ? 02:12:06 11° NNE 02:12:06 11° NNE 02:12:21 10° NNE visible
27 Mar ? 03:48:36 13° NNW 03:48:36 13° NNW 03:49:06 10° NNW visible
28 Mar ? 02:19:29 12° NNE 02:19:29 12° NNE 02:20:07 10° NNE visible
28 Mar ? 03:56:00 13° NNW 03:56:00 13° NNW 03:56:32 10° NNW visible
29 Mar ? 02:26:53 14° NNE 02:26:53 14° NNE 02:27:50 10° NNE visible
29 Mar ? 04:03:23 13° NNW 04:03:23 13° NNW 04:03:57 10° NNW visible
30 Mar ? 02:34:17 16° NNE 02:34:17 16° NNE 02:35:29 10° NNE visible
30 Mar ? 04:10:47 13° NNW 04:10:47 13° NNW 04:11:20 10° NNW visible
31 Mar ? 02:41:40 18° NNE 02:41:40 18° NNE 02:43:06 10° N visible
31 Mar ? 04:18:10 13° NW 04:18:10 13° NW 04:18:41 10° NNW visible
